FENGYUN 1C DEB, 30496

Orbit data source: Space-Track

FENGYUN 1C DEB, 30496 is space debris in SSO originally from a launch on Mon, 10 May 1999 UTC launched from the Taiyaun Space Center, China (TSC). Fengyun 1C debris stems from the Chinese weather satellite Fengyun-1C, which was intentionally destroyed by a Chinese anti-satellite missile in 2007. This event dramatically increased the amount of space debris, with thousands of trackable fragments posing hazards to satellites and human spaceflight. The Fengyun 1C debris cloud has become a focal point in discussions about space sustainability and the need for international regulations to prevent the creation of new debris.

Loading next visibility...
Identifier
30496, 1999-025AHJ
Orbit
SSO
Country
Flag of CNCN / PRC
Related business
Manufacturer
Unknown
Mission
Spacecraft
Bus & Motor
Unknown
Mass
Unknown
Launch date (UTC)
1999-05-10 (27 years ago)
Launch vehicle
Unknown
Launch site
Taiyaun Space Center, China (TSC)
Object type
Payload
Rocket body
Debris
Shape & HBR
Unknown shape, 0.1 m
Radar Cross Section
Medium (>0.1 m² and <1 m²)

Expand to show TLE details & history
Last TLE update: 1 day ago

TLE from 1 day ago
0 FENGYUN 1C DEB
1 30496U 99025AHJ 26253.79914824  .00005848  00000-0  43057-3 0  9996
2 30496  98.7885 197.8946 0117333 293.7350  65.1597 14.98437999 52137
Epoch: 2026-09-10T19:10Z
TLE epoch observation values (Epoch: 2026-09-10T19:10:46.407Z)
Latitude
-0.00003°
Longitude
-79.63043°
Altitude
541.271 km
Speed
7.61 km/s
True Right ascension
13h 11m 34s
True Declination
0° 00' 00"
Sunlit
Object was in daylight at epoch
Visualization orbit readout
Latitude
Unknown
Longitude
Unknown
Altitude
Unknown
Speed
Unknown
Apparent Right ascension
Unknown
Apparent Declination
Unknown
Sunlit
N/A
Visualization observer readout
Local Sidereal Time
13:33:11
Azimuth
Unknown
Elevation
Unknown
Doppler factor
Unknown
Orbital elements
Apogee altitude
650.29 km
Perigee altitude
487.27 km
Semi-major axis
6,946.917 km
Eccentricity
0.01173
Inclination
98.7885°
RAAN
197.8946°
Arg. of periapsis
293.735°
True anomaly
66.38731°
Mean anomaly
65.1597°
Eccentric anomaly
65.77276°
Mean motion
3.74848 °/min
Orbital period
96.04 mins
BSTAR
0.00043057
Loading maneuver chart data...
Computing Atmospheric mass density...
Loading historical data...
Loading historical data...
Loading historical data...
Loading historical data...
Loading historical data...
Loading historical data...
Loading historical data...

Documentation

Showing up to 5 results
|